This is the latest recevied weather packets stored in our database for station/object KD5NDU-15. If no packets are shown the sender has not sent any weather packets the latest 10 day(s).
| Time | Temp. | Humidity | Pressure | Rain* | Wind** | Luminosity | Snow |
|---|---|---|---|---|---|---|---|
| 1778161840 | 13.33° C | 94% | 1014 hPa | 0 mm | - | 503 W/m² | - |
| 1778161274 | 12.78° C | 95% | 1014 hPa | 0 mm | - | 213 W/m² | - |
| 1778160710 | 12.78° C | 97% | 1014.2 hPa | 0 mm | - | 265 W/m² | - |
| 1778160644 | 12.78° C | 97% | 1014.2 hPa | 0 mm | - | 265 W/m² | - |
| 1778160343 | 12.78° C | 99% | 1014 hPa | 0 mm | - | 366 W/m² | - |
| 1778160056 | 12.78° C | 99% | 1014 hPa | 0 mm | - | 403 W/m² | - |
| 1778159745 | 12.22° C | 99% | 1013.8 hPa | 0 mm | - | 378 W/m² | - |
| 1778159445 | 12.22° C | 100% | 1013.6 hPa | 0 mm | - | 353 W/m² | - |
| 1778159167 | 11.67° C | 100% | 1013.3 hPa | 0 mm | - | 332 W/m² | - |
| 1778158845 | 11.67° C | 100% | 1013.4 hPa | 0 mm | - | 100 W/m² | - |
| 1778158542 | 11.67° C | 100% | 1013.5 hPa | 0 mm | - | 323 W/m² | - |
| 1778158240 | 11.67° C | 100% | 1013.4 hPa | 0 mm | - | 297 W/m² | - |
| 1778157940 | 11.67° C | 100% | 1013.4 hPa | 0 mm | - | 271 W/m² | - |
| 1778157640 | 11.67° C | 100% | 1013.4 hPa | 0 mm | - | - | - |
| 1778157372 | - | - | 0 hPa | 0 mm | - | - | - |
| 1778157341 | - | - | 0 hPa | 0 mm | - | - | - |
| 1778157054 | - | - | 0 hPa | 0 mm | - | - | - |
| 1778111808 | 13.89° C | 97% | 1010 hPa | 1.27 mm | - | 19 W/m² | - |
| 1778111507 | 13.89° C | 96% | 1010.2 hPa | 1.27 mm | - | 19 W/m² | - |
| 1778111208 | 14.44° C | 96% | 1010.1 hPa | 1.27 mm | - | 19 W/m² | - |
| 1778110907 | 14.44° C | 96% | 1010.2 hPa | 1.02 mm | - | 18 W/m² | - |
| 1778110607 | 14.44° C | 96% | 1010.2 hPa | 1.02 mm | - | 37 W/m² | - |
| 1778110308 | 14.44° C | 96% | 1010.3 hPa | 1.02 mm | - | 14 W/m² | - |
| 1778110007 | 14.44° C | 95% | 1010.6 hPa | 0 mm | - | 16 W/m² | - |
| 1778109708 | 14.44° C | 95% | 1010.6 hPa | 0 mm | - | 12 W/m² | - |
* Rain latest hour (hover to see other rain measurements)
** Current wind speed in m/s (hover to see current wind gust speed)